Flag for Spain Weather past 2 weeks in Granada, Spain

Now
73 °F

Clear.


Feels Like: 77 °F
Forecast: 60 / 78 °F
Wind: 3 mph from North

Location: Granada / Aeropuerto

Current Time: May 29, 2015 at 1:01:24 AM

Latest Report: May 28, 2015 at 11:00 PM


Visibility: 10 mi

Pressure: 30.01 "Hg

Humidity: 31%

Dew point: 41 °F

Location of GranadaLocation

Historic Weather in Granada — Graph

°F

Granada temperature yesterday

Maximum temperature yesterday: 90 °F (at 5:30 PM)
Minimum temperature yesterday: 52 °F (at 6:30 AM)
Average temperature yesterday: 77 °F

Past Weeks' High & Low Weather Summary

 TemperatureHumidityPressure
High100 °F (May 14, 4:00 PM)88% (May 21, 6:00 AM)30.24 "Hg (May 21, 6:00 AM)
Low50 °F (May 22, 6:30 AM)9% (May 14, 4:30 PM)29.80 "Hg (May 19, 4:00 PM)
Average72 °F40%30.04 "Hg
* Reported May 13 11:00 PM — May 28 11:00 PM, Granada, Weather by CustomWeather, © 2015

Note: Actual official high and low records may vary slightly from our data, if they occured in-between our weather recording intervals... More about our weather records

Advertising

Granada weather history for previous 24 hours

 ConditionsComfort  
Time TempWeatherWind HumidityBarometerVisibility
11:00 PM
Thu, May 28
73 °FClear.3 mph31%30.01 "Hg10 mi
10:30 PM77 °FPassing clouds.8 mph26%29.98 "HgN/A
10:00 PM79 °FPassing clouds.6 mph28%29.98 "HgN/A
9:30 PM81 °FPassing clouds.3 mph26%29.95 "HgN/A
9:00 PM82 °FPassing clouds.7 mph25%29.95 "HgN/A
8:30 PM84 °FPassing clouds.8 mph23%29.95 "HgN/A
8:00 PM86 °FPassing clouds.8 mph22%29.95 "HgN/A
7:30 PM88 °FPassing clouds.8 mph21%29.95 "HgN/A
7:00 PM90 °FPassing clouds.10 mph18%29.95 "HgN/A
6:30 PM90 °FPassing clouds.10 mph18%29.95 "HgN/A
6:00 PM90 °FPassing clouds.3 mph16%29.98 "HgN/A
5:30 PM90 °FPassing clouds.7 mph16%29.98 "HgN/A
5:00 PM88 °FPassing clouds.5 mph17%29.98 "HgN/A
4:30 PM86 °FPassing clouds.10 mph19%30.01 "HgN/A
4:00 PM86 °FPassing clouds.10 mph19%30.01 "HgN/A
3:30 PM86 °FPassing clouds.13 mph19%30.01 "HgN/A
3:00 PM86 °FPassing clouds.8 mph18%30.01 "HgN/A
2:30 PM86 °FPassing clouds.5 mph20%30.04 "HgN/A
2:00 PM86 °FPassing clouds.3 mph20%30.04 "HgN/A
1:30 PM84 °FPassing clouds.5 mph22%30.04 "HgN/A
1:00 PM84 °FPassing clouds.5 mph22%30.07 "HgN/A
12:30 PM84 °FSunny.5 mph22%30.07 "Hg10 mi
12:00 PM81 °FPassing clouds.10 mph24%30.07 "HgN/A
11:30 AM81 °FPassing clouds.6 mph24%30.07 "HgN/A
11:00 AM75 °FSunny.2 mph36%30.07 "Hg10 mi
10:30 AM72 °FSunny.2 mph41%30.09 "Hg10 mi
10:00 AM70 °FSunny.1 mph43%30.09 "Hg10 mi
9:30 AM68 °FSunny.1 mph46%30.09 "Hg10 mi
9:00 AM64 °FSunny.1 mph49%30.09 "Hg10 mi
8:30 AM59 °FSunny.No wind59%30.09 "Hg10 mi
8:00 AM57 °FSunny.No wind63%30.09 "Hg10 mi
7:30 AM55 °FClear.No wind63%30.09 "Hg10 mi
7:00 AM54 °FClear.2 mph67%30.09 "Hg10 mi
6:30 AM52 °FClear.No wind72%30.07 "Hg10 mi
6:00 AM54 °FClear.1 mph67%30.07 "Hg10 mi
Weather by CustomWeather, © 2015

See weather overviewHow to use our weather pages